Content
SEND FEEDBACK

Daily
Averages
Monthly
Summary
United States of America

NYSSA, OREGON


Home > North America > United States > Oregon
Elevation: 2192 feet     Latitude: 43 52N     Longitude: 117 00W

WEATHER
 
SELECT A DAY
Number of Records: 164,283;   Date Range: 4/9/97 - 9/16/14
 
SHARE

PRINT THIS DATA

[ ← Previous Day ]
WEATHER ALMANAC - JANUARY 23, 2013
[ Next Day → ]
[ °C ]   °F
Weather ElementAverageHighLow
Temperature3.2 °F18 °F (11:53 pm)-5.8 °F (7:02 am)
Dewpoint-2.4 °F10.9 °F (11:53 pm)-11.2 °F (8:31 am)
Humidity77.9 %85 % (10:39 am)71 % (9:10 am)
Barometer30.42 in30.56 in (12:53 am)30.25 in (3:51 pm)
Wind Speed0.6 mph5.8 mph (9:53 pm)
Weather ElementAverage
Visibility2.7 mi
Wind DirectionNNE (23.5 °)

Weather ElementTotal
Precipitation---
Heating Degree Days58.9 (Base 65)
Averaged from 48 records on January 23, 2013
WEATHER CONDITIONS BREAKOUT
WIND DIRECTION BREAKOUT
WEATHER BY HOUR - JANUARY 23, 2013
[ °C ]   °F
Local TimeTemperatureDewpointHumidityBarometerVisibilityWind DirectionWind SpeedGust SpeedPrecipitationEventsConditions
12:46 AM-0.4 °F-5.8 °F78 %30.40 in2.5 miCalmHaze
12:53 AM-0.9 °F-6.0 °F79 %30.56 in2.5 miCalmHaze
1:14 AM-0.4 °F-5.8 °F78 %30.40 in3.0 miCalmHaze
1:45 AM-0.4 °F-5.8 °F78 %30.39 in2.5 miCalmHaze
1:53 AM-0.9 °F-6.0 °F79 %30.56 in2.5 miCalmHaze
2:12 AM-2.2 °F-7.6 °F78 %30.40 in3.0 miCalmHaze
2:45 AM-0.4 °F-5.8 °F78 %30.39 in2.5 miCalmHaze
2:53 AM-0.9 °F-6.0 °F79 %30.55 in2.5 miCalmHaze
3:24 AM-4.0 °F-9.4 °F78 %30.40 in3.0 miCalmHaze
3:40 AM-0.4 °F-5.8 °F78 %30.40 in2.5 miCalmHaze
3:53 AM-0.9 °F-6.0 °F79 %30.55 in2.5 miCalmHaze
4:04 AM-4.0 °F-9.4 °F78 %30.38 in3.0 miCalmHaze
4:53 AM-4.0 °F-9.0 °F79 %30.54 in3.0 miCalmHaze
5:53 AM-4.0 °F-9.0 °F79 %30.54 in4.0 miCalmHaze
6:53 AM-5.1 °F-9.9 °F80 %30.54 in4.0 miCalmHaze
7:02 AM-5.8 °F-9.4 °F84 %30.37 in4.0 miCalmHaze
7:25 AM-4.0 °F-9.4 °F78 %30.37 in3.0 miCalmHaze
7:32 AM-4.0 °F-9.4 °F78 %30.37 in4.0 miCalmHaze
7:53 AM-4.0 °F-9.0 °F79 %30.54 in4.0 miCalmHaze
8:31 AM-5.8 °F-11.2 °F77 %30.36 in2.5 miCalmHaze
8:40 AM-4.0 °F-9.4 °F78 %30.36 in2.5 miCalmHaze
8:53 AM-4.0 °F-9.0 °F79 %30.54 in2.5 miCalmHaze
9:10 AM-2.2 °F-9.4 °F71 %30.36 in2.5 miCalmHaze
9:25 AM-2.2 °F-9.4 °F71 %30.37 in2.5 miCalmHaze
9:53 AM-0.9 °F-6.0 °F79 %30.54 in2.0 miCalmHaze
10:04 AM-0.4 °F-5.8 °F78 %30.38 in2.5 miCalmHaze
10:13 AM-0.4 °F-5.8 °F78 %30.37 in2.5 miCalmMostly Cloudy
10:39 AM-0.4 °F-4.0 °F85 %30.38 in2.5 miCalmScattered Clouds
10:53 AM1.0 °F-2.9 °F83 %30.55 in2.0 miCalmClear
11:34 AM1.4 °F-2.2 °F85 %30.36 in1.8 miCalmClear
11:53 AM3.0 °F-0.9 °F84 %30.52 in1.5 miCalmClear
12:53 PM6.1 °F1.0 °F80 %30.49 in1.8 miCalmHaze
1:53 PM9.0 °F3.9 °F80 %30.45 in1.8 miCalm0.00 inHaze
2:53 PM10.0 °F3.9 °F76 %30.43 in1.8 miCalmHaze
3:04 PM10.4 °F3.2 °F73 %30.27 in2.0 miCalmHaze
3:29 PM10.4 °F5.0 °F79 %30.27 in1.8 miWest (260°)3.5 mphHaze
3:51 PM12.2 °F5.0 °F73 %30.25 in2.0 miCalmHaze
3:53 PM12.0 °F5.0 °F73 %30.40 in2.0 miCalmHaze
4:53 PM12.0 °F5.0 °F73 %30.43 in2.0 miCalmHaze
5:16 PM12.2 °F6.8 °F79 %30.27 in2.5 miCalmHaze
5:51 PM12.2 °F6.8 °F79 %30.26 in4.0 miSouth (170°)3.5 mphHaze
5:53 PM12.9 °F7.0 °F77 %30.42 in4.0 miSouth (170°)3.5 mphHaze
6:53 PM14.0 °F8.1 °F77 %30.43 in3.0 miWSW (240°)4.6 mphHaze
7:53 PM15.1 °F8.1 °F74 %30.40 in3.0 miVariable4.6 mphHaze
8:53 PM15.1 °F9.0 °F77 %30.38 in3.0 miENE (70°)3.5 mphHaze
9:53 PM16.0 °F9.0 °F74 %30.38 in3.0 miSW (220°)5.8 mphHaze
10:53 PM17.1 °F10.0 °F74 %30.40 in3.0 miCalm0.00 inHaze
11:53 PM18.0 °F10.9 °F74 %30.40 in3.0 miCalm0.00 inHaze
Hourly data recorded from KONO, located miles away from Nyssa, Oregon







STORIES FROM OUR PARTNERS